Location: Unspecified
(64.9000°N, 0.0000°E)
Time: 07:27:10
(UTC+00:00)

A-11 Canister half - Pass Details

Date: 21 June 2019
Orbit: 1526 x 1683 km, 47.3° (Epoch: 21 July)

Event Time Altitude Azimuth Distance (km) Brightness Sun altitude
Rises 09:18:38 0° 260° (W) 4,690 11.2 40.9°
Reaches altitude 10° 09:22:30 10° 247° (WSW) 3,699 10.9 41.2°
Maximum altitude 09:29:05 22° 201° (SSW) 2,843 10.9 41.8°
Drops below altitude 10° 09:35:42 10° 155° (SSE) 3,707 12.0 42.3°
Sets 09:39:36 0° 141° (SE) 4,704 12.4 42.6°
